Date,TemperatureHighF,TemperatureAvgF,TemperatureLowF,DewpointHighF,DewpointAvgF,DewpointLowF,HumidityHigh,HumidityAvg,HumidityLow,PressureMaxIn,PressureMinIn,WindSpeedMaxMPH,WindSpeedAvgMPH,GustSpeedMaxMPH,PrecipitationSumIn
2013-1-1,28.7,21.6,10.2,20.1,10.4,4.4,79,62,47,30.11,29.96,10,1,0,0.00
2013-1-2,25.3,20.2,10.7,17.3,12.3,5.2,83,71,63,30.16,30.04,11,1,0,0.00
2013-1-3,29.5,23.5,16.9,23.7,15.3,5.5,80,71,58,30.12,30.00,12,2,0,0.00
2013-1-4,32.1,28.1,23.8,22.4,18.5,16.6,77,67,56,30.13,29.94,19,3,0,0.01
2013-1-5,32.2,25.7,14.3,28.9,20.0,10.4,89,79,67,30.25,29.98,11,1,0,0.00
2013-1-6,35.6,33.7,31.8,31.7,28.4,24.1,89,81,68,30.19,29.85,14,2,0,0.05
2013-1-7,35.9,32.1,29.8,26.6,22.9,20.2,82,69,60,30.32,30.10,21,4,0,0.01
2013-1-8,37.5,30.5,25.1,26.3,23.1,19.8,81,74,62,30.20,30.11,11,1,0,0.01
2013-1-9,47.3,38.9,30.0,32.2,26.6,20.6,84,63,36,30.36,29.98,20,3,0,0.01
2013-1-10,40.3,32.5,23.8,32.0,25.8,19.9,88,77,58,30.54,30.16,6,0,0,0.03
2013-1-11,55.9,44.9,35.2,50.1,41.0,31.8,94,87,75,30.15,29.70,13,1,0,0.57
2013-1-12,58.9,50.6,44.1,49.3,45.4,41.6,92,83,67,29.86,29.76,12,1,0,0.00
2013-1-13,49.8,39.3,32.1,47.6,35.8,28.1,92,87,81,29.95,29.65,12,1,0,0.50
2013-1-14,32.1,24.8,18.0,28.1,15.9,12.6,85,69,57,30.39,29.95,17,2,0,0.00
2013-1-15,30.7,22.6,14.0,18.5,14.2,10.1,86,71,49,30.41,30.11,5,0,0,0.00
2013-1-16,38.8,30.2,19.7,26.3,17.2,10.5,86,62,31,30.11,29.75,19,2,0,0.00
2013-1-17,34.7,29.7,18.0,26.5,18.0,0.7,78,62,44,30.27,29.88,18,3,0,0.00
2013-1-18,36.0,24.8,14.1,21.1,12.2,2.3,78,59,43,30.41,29.92,20,4,0,0.00
2013-1-19,46.1,40.1,35.0,33.3,26.9,21.1,67,59,52,29.92,29.48,24,5,0,0.00
2013-1-20,44.3,23.1,16.2,33.1,7.5,1.7,65,51,37,30.15,29.46,30,6,0,0.00
2013-1-21,17.7,13.2,4.8,11.8,1.5,-8.2,80,59,46,30.12,29.92,17,2,0,0.00
2013-1-22,90.5,5.0,-0.6,66.9,-8.1,-15.8,67,54,43,30.26,30.06,17,2,0,0.00
2013-1-23,16.5,10.3,3.2,9.8,1.6,-5.8,79,68,51,30.26,30.06,12,1,0,0.00
2013-1-24,19.7,14.1,10.0,9.3,2.5,-3.8,79,61,37,30.55,30.08,14,1,0,0.00
2013-1-25,19.9,17.2,12.3,15.1,10.0,0.3,84,73,56,30.49,29.99,7,0,0,0.00
2013-1-26,27.2,21.0,13.8,16.2,13.3,8.7,85,73,53,30.41,30.02,11,1,0,0.00
2013-1-27,29.0,20.5,9.0,26.4,13.4,4.6,90,75,55,30.46,30.11,12,1,0,0.00
2013-1-28,43.2,36.5,29.0,41.6,34.4,26.3,95,92,88,30.13,29.78,10,1,0,0.28
2013-1-29,55.6,44.2,33.7,53.7,42.3,30.8,96,93,88,29.97,29.42,17,2,0,0.67
2013-1-30,60.7,50.9,34.3,55.0,47.1,28.2,94,87,78,29.42,29.01,21,4,0,0.39
2013-1-31,34.3,22.8,16.9,28.5,13.2,7.7,83,67,52,29.83,29.11,24,4,0,0.00